Back to catalog

COSMOS 839 DEB

AliveUNKNOWN
NORAD 13947·DEBRIS·🇷🇺 Russia

Launched Jul 8, 1976 from Plesetsk Cosmodrome

Loading…

Next Passes (next 24 hours)

TLE

FreshSource: Space-Track

Epoch: Sep 14, 2026, 05:00 UTC

1 13947U 76067BF  26257.20887215  .00000012  00000-0  29299-3 0  9992
2 13947  65.7191 172.5441 0666656  23.8700 121.7156 12.24398520555198

Track COSMOS 839 DEB in real time with AllMySat

Download on the App Store